Regional Weather Roundup
Issued by NWS Wakefield, VA

Home | Current Version | Previous Version | Graphics & Text | Print | Product List | Glossary On
Versions: 1 2 3 4 5 6 7 8 9 10 11 12 13 14 15 16 17 18 19 20 21 22 23 24 25 26 27 28 29 30 31 32 33 34 35 36 37 38 39 40 41 42 43 44 45 46 47 48 49 50
305
ASUS41 KAKQ 270615
RWRAKQ

REGIONAL WEATHER ROUNDUP
NATIONAL WEATHER SERVICE WAKEFIELD VA
200 AM EDT THU APR 27 2017

Note: "fair" indicates few or no clouds below 12,000 feet with no
significant weather and/or obstructions to visibility. * = Denotes
station may not report precipitation (e.g., rain,snow,etc.),
thunder or fog.

VAZ042-051-052>054-056-270700-
NORTHERN VIRGINIA

CITY           SKY/WX    TMP DP  RH WIND       PRES   REMARKS
WASH NATIONAL  PTCLDY    61  58  90 CALM      29.84F
DULLES         PTCLDY    57  55  93 CALM      29.82F
FORT BELVOIR   CLEAR     55  54  94 CALM      29.83S FOG
QUANTICO       CLEAR     61  60  97 SE3       29.84S
FREDERICKSBRG* CLEAR     58  58 100 CALM      29.82S
STAFFORD*      CLEAR     58  58 100 CALM      29.87S
WARRENTON      MOCLDY    59  56  88 CALM      29.82F
CULPEPER*      FOG       57  57 100 CALM      29.83S VSB 1/2
MANASSAS*        N/A     59  58  96 SE3       29.83F
LEESBURG*      CLEAR     59  59 100 SE3       29.84F
WINCHESTER     CLEAR     54  54 100 CALM      29.80S FOG
FRONT ROYAL*   CLEAR     57  57 100 CALM      29.79S
LURAY*         FOG       55  55 100 CALM      29.80F VSB 1
$$

VAZ048-049-060>072-079>083-270700-
CENTRAL AND SOUTH CENTRAL VIRGINIA

CITY           SKY/WX    TMP DP  RH WIND       PRES   REMARKS
RICHMOND       CLEAR     61  60  97 SE5       29.82F
CHESTERFIELD*  FAIR     N/A N/A N/A CALM      29.83F
PETERSBURG*    CLEAR     57  56  97 CALM      29.83F FOG
HANOVER        CLEAR     58  56  93 CALM      29.83F FOG
TAPPAHANNOCK*  CLEAR     58  58 100 CALM      29.84S
QUINTON*       FAIR      60  60 100 MISG      29.83S
CHARLOTTSVILLE CLEAR     63  60  90 CALM      29.81S
GORDONSVILLE*  PTCLDY    57  57 100 CALM      29.81S FOG
ORANGE*        FOG       55  54  94 CALM      29.82S VSB 3/4
LOUISA*        CLEAR     63  61  94 CALM      29.81S
BUMPASS*       FAIR      60  60 100 S7        29.82S
FARMVILLE*     CLEAR     63  63 100 CALM      29.80F
CREWE*         FAIR      59  59 100 CALM      29.82S
FORT PICKETT*  FAIR     N/A N/A N/A CALM      29.82F
CHASE CITY*    FAIR      60  59  94 CALM      29.82F
CLARKSVILLE*   FAIR      59  59 100 CALM      29.82S
SOUTH HILL*    CLEAR     62  62  99 S5        29.89S
LAWRENCEVILLE* FAIR      62  61  96 CALM      29.83S
EMPORIA*         N/A     61  59  94 CALM      29.85F
$$

VAZ088>098-270700-
SOUTHEAST VIRGINIA

CITY           SKY/WX    TMP DP  RH WIND       PRES   REMARKS
NORFOLK        CLEAR     65  61  87 S6        29.83F
VIRGINIA BEACH CLEAR     63  61  93 S3        29.83F
NORFOLK NAVAL  PTCLDY    64  61  90 S7        29.85F
WEST POINT*    CLEAR     59  58  96 CALM      29.84F
SALUDA*        FAIR      59  59  99 CALM      29.84S
NEWPORT NEWS   CLEAR     58  57  97 CALM      29.84S
LANGLEY AFB    CLEAR     62  61  95 S5        29.83F
FORT EUSTIS    NOT AVBL
WILLIAMSBURG*  CLEAR     64  63  94 CALM      29.84F
HR EXEC AP*    FAIR      63  57  82 S5        29.83S
FRANKLIN*      PTCLDY    63  62  95 S5        29.84F
US460-WAKEFLD  CLEAR     60  60 100 CALM      29.83F
$$

VAZ020-022-025-037-045-270700-
WEST CENTRAL AND SOUTHWEST VIRGINIA

CITY           SKY/WX    TMP DP  RH WIND       PRES   REMARKS
STAUNTON*      CLEAR     55  54  95 CALM      29.83F
WAYNESBORO*    CLEAR     59  59  98 CALM      29.83S
HOT SPRINGS VA CLEAR     59  55  88 S8        29.90F
LYNCHBURG      CLEAR     59  59 100 SW3       29.83S
DANVILLE       CLEAR     58  58 100 CALM      29.81F FOG
SOUTH BOSTON*  FAIR      60  58  96 CALM      29.82S
MARTINSVILLE   CLEAR     54  54  97 CALM      29.84F
ROANOKE        CLEAR     64  60  87 CALM      29.83F
BLACKSBURG     CLEAR     59  56  90 E3        29.88S
DUBLIN*        CLEAR     63  55  75 CALM      29.85F
MARION*        CLEAR     64  56  77 CALM      29.85F
HILLSVILLE*    CLEAR     63  58  84 S9G16     29.85F
RICHLANDS*     FAIR      66  51  58 S8        29.80S
WISE*          CLEAR     64  50  59 S8G18     29.81R
ABINGDON*      CLEAR     69  54  58 S8        29.80S
$$

MDZ021>025-VAZ099-100-270700-
SOUTHERN MARYLAND AND THE DELMARVA PENINSULA

CITY           SKY/WX    TMP DP  RH WIND       PRES   REMARKS
PATUXENT RIVER CLEAR     59  59 100 SE3       29.84F
BAY BRIDGE APT CLEAR     57  55  94 CALM      29.84F FOG
LEONARDTOWN    CLEAR     57  55  94 SE3       29.86S
DOVER          CLEAR     59  59 100 CALM      29.84S HAZE
GEORGETOWN     FOG       58  57  97 MISG      29.86F VSB 1/4
EASTON         CLEAR     58  56  94 S3        29.88F FOG
CAMBRIDGE      FOG       54  54 100 SE3       29.85S VSB 1/4
SALISBURY      FOG       54  54 100 CALM      29.85F VSB 1/2
OCEAN CITY     CLEAR     52  51  97 CALM      29.86S FOG
WALLOPS ISLAND CLEAR     57  57 100 S5        29.86F
ACCOMACK*      CLEAR     58  52  80 SE6       29.85S
$$

NCZ012>017-030>032-270700-
NORTH CENTRAL AND EASTERN NORTH CAROLINA

CITY           SKY/WX    TMP DP  RH WIND       PRES   REMARKS
ROANOKE RAPIDS FAIR      64  63  94 CALM      29.84S
RALEIGH        CLEAR     68  64  87 SW9       29.85R
ELIZABETH CITY CLEAR     67  66  97 S6        29.85F
AHOSKIE*         N/A     64  63  96 S3        29.85S
EDENTON*       CLEAR     68  65  89 CALM      29.86F
CURRITUCK*     MOCLDY    66  66 100 CALM      29.86F
KILL DEVIL HLS CLOUDY    67  67 100 CALM      29.86S
MANTEO         MOCLDY    68  66  94 SW12      29.87S
CAPE HATTERAS  CLEAR     71  67  87 SW10      29.89S FOG
TARBORO*       NOT AVBL
GOLDSBORO      CLEAR     68  64  86 SW8       29.84S
WASHINGTON     CLEAR     66  63  91 S3        29.87S
GREENVILLE     CLEAR     68  64  88 SW9       29.88S
NEW BERN       CLEAR     66  65  96 S5        29.88F
WILMINGTON     CLEAR     68  62  81 SW8       29.89S
$$

VAZ048-270700-
ELSEWHERE

CITY           SKY/WX    TMP DP  RH WIND       PRES   REMARKS
HARRISBURG PA  PTCLDY    56  56 100 E5        29.83S
BALTIMORE      PTCLDY    54  54 100 CALM      29.84S
ANNAPOLIS      CLEAR     58  57  97 CALM      29.84S FOG
ANDREWS AFB    PTCLDY    56  55  96 CALM      29.83F
PHILADELPHIA   CLOUDY    62  56  80 CALM      29.85F
HENDERSON NC   CLEAR     62  59  91 S5        29.84S
GREENSBORO     CLEAR     62  61  96 S7        29.83S
ROCKY MOUNT    CLEAR     66  64  93 S6        29.85R
$$

VAZ100-270700-
MARINE

STATION/POSITION TIME  TEMP    WIND        PRES    WAVE   SWELL
                       AIR SEA DIR/SP/G            HT/PER HT/PER
                 (UTC) (F)     (DEG/KT/KT) (MB)    (FT/S) (FT/S)
CAPE MAY NJ      0548   57 55  150/  3/  4 1010.7S
LEWES DE         0542   58 56  180/  3/  5 1011.0R
15NM E FENWICK I 0550   52 51  170/  4/  4 1011.9F   5/10   5/10
OCEAN-CITY-INLET 0542   53 54  210/  4/  5 1011.7F
WACHAPREAGUE VA  0548   57 62  120/  3/  4 1010.6F
THOMAS POINT MD  0600   58 57  130/  2/  2   N/A
GOOSES REEF MD   0600   59 53  150/  6/  6 1011.3    1
COVE POINT MD    0548   59     180/ 10/ 11 1011.0F
SOLOMONS ISLAND  0548   59 60  110/  5/  5   N/A
BISHOPS HEAD MD  0548   60 61  140/  9/ 12 1011.0F
PINEY POINT MD   0548          140/ 10/ 10   N/A
POTOMAC MD       0600   60 60  150/  8/ 10 1009.6    1/ 2
CAMBRIDGE MD     0542   58 62                N/A
LEWISETTA VA     0548   61 62  130/  4/  4 1010.1F
RAPPAHANNOCK LGT 0548          130/  8/  8 1011.1F
STINGRAY PT      0600   62 62  160/  6/  8 1010.4    1
YORK RVR RNG VA  0548   63     170/ 10/ 10 1009.6F
YORKTOWN VA      0548   62 63  150/  3/  4 1009.9F
JAMESTOWN VA     0600   65 67  140/  8/ 10   N/A     0
DOMINION TERM VA 0548   65     180/  3/  5 1010.4F
KIPTOPEKE VA     0548      62  160/  8/ 10   N/A
CHES BAY BRIDGE  0548   64 61  200/  9/ 10 1010.2F
CAPE HENRY VA    0548   63     170/  6/  8   N/A
WILLOUBY STN VA  0548   67     170/  6/  7 1011.2F
S CRANEY ISL VA  0548   65     180/  5/  6 1010.2F
CAPE HENRY BUOY  0542      56                N/A     3/10   2/11
1ST LANDING BUOY 0600   63 61              1010.5    1/ 6
CAPE CHARLES BUO 0551      56                N/A     3/10   2/12
64NM E OF VA BCH 0550   59 56  190/  8/ 10 1011.9F   5/ 9   5/ 9
DUCK PIER NC     0548   68 60  190/  9/ 11 1010.7F
44100 DUCK FRF   0505      57                N/A     4/ 9   2/11
44056 DUCK FRF   0530      61                N/A     4/11   2/11
OREGON INLET NC  0542   68 68  190/ 10/ 11 1011.5R
HATTERAS NC      0548   72 69  210/  7/ 11 1011.7S
DIAMOND SHLS NC  0550   76 76  220/ 19/ 21 1011.9F   7/ 9   5/ 9
CAPE LOOKOUT NC  0600   71     210/  8/ 10 1011.9S
$$




USA.gov is the U.S. government's official web portal to all federal, state and local government web resources and services.